Estación de Rauco

Ultimos registro cada 15 minutos 36
Estación Fecha / Hora Temperatura Humedad Lluvia Velocidad Dirección Radiación Presion
36 Rauco 08-05-2026 08:45 5,4 94 0 0 105 185 1023,1
35 Rauco 08-05-2026 08:30 4,3 94 0 0 105 142 1023
34 Rauco 08-05-2026 08:15 3,5 93 0 0 104 98 1023
33 Rauco 08-05-2026 08:00 2,5 93 0 0 175 35 1022,7
32 Rauco 08-05-2026 07:45 1,5 92 0 0 175 19 1022,8
31 Rauco 08-05-2026 07:30 1,3 91 0 0 175 5 1022,8
30 Rauco 08-05-2026 07:15 1,4 91 0 0 175 0 1023,2
29 Rauco 08-05-2026 07:00 1,8 91 0 0 175 0 1023,2
28 Rauco 08-05-2026 06:45 2,1 92 0 0 175 0 1023,5
27 Rauco 08-05-2026 06:30 2,1 92 0 0 175 0 1023,6
26 Rauco 08-05-2026 06:15 2 91 0 0 175 0 1023,5
25 Rauco 08-05-2026 06:00 1,9 91 0 0 175 0 1023,5
24 Rauco 08-05-2026 05:45 1,8 91 0 0 175 0 1023,7
23 Rauco 08-05-2026 05:30 1,8 90 0 0 175 0 1023,9
22 Rauco 08-05-2026 05:15 2 91 0 0 175 0 1023,9
21 Rauco 08-05-2026 05:00 1,9 91 0 0 175 0 1023,9
20 Rauco 08-05-2026 04:45 1,8 90 0 0 175 0 1023,7
19 Rauco 08-05-2026 04:30 1,9 90 0 0 175 0 1023,6
18 Rauco 08-05-2026 04:15 2 90 0 0 175 0 1023,5
17 Rauco 08-05-2026 04:00 2 89 0 0 175 0 1023,6
16 Rauco 08-05-2026 03:45 2,3 89 0 0 175 0 1023,7
15 Rauco 08-05-2026 03:30 2,5 89 0 0 175 0 1024,2
14 Rauco 08-05-2026 03:15 2,6 88 0 0 175 0 1024,4
13 Rauco 08-05-2026 03:00 2,8 88 0 0 175 0 1024,5
12 Rauco 08-05-2026 02:45 3,2 89 0 0 175 0 1024,4
11 Rauco 08-05-2026 02:30 3,3 88 0 0 175 0 1024,5
10 Rauco 08-05-2026 02:15 3,4 87 0 0 175 0 1024,6
9 Rauco 08-05-2026 02:00 3,7 86 0 0 175 0 1024,7
8 Rauco 08-05-2026 01:45 4,2 86 0 0 175 0 1024,4
7 Rauco 08-05-2026 01:30 4,6 87 0 0 175 0 1024,5
6 Rauco 08-05-2026 01:15 4,8 85 0 0 175 0 1024,9
5 Rauco 08-05-2026 01:00 5,3 83 0 0 175 0 1024,9
4 Rauco 08-05-2026 00:45 6,2 83 0 0 175 0 1025
3 Rauco 08-05-2026 00:30 6,9 81 0 0 175 0 1024,7
2 Rauco 08-05-2026 00:15 7,3 81 0 0 175 0 1025,3
1 Rauco 08-05-2026 00:00 8,1 78 0 0 175 0 1025,2